Kimball, NE

11:20 PM MST on February 21, 2017 (GMT -0700)
Kimball Municipal-Arraj

Weather History for KIBM - September, 2013

Change the Weather History Date:

Tuesday, September 3, 2013

  Actual Average (KSNY) Record (KSNY)
Temperature  
Mean Temperature 78 °F -  
Max Temperature 95 °F 82 °F 99 °F (2014)
Min Temperature 61 °F 49 °F 33 °F (1974)
Cooling Degree Days 13    
Growing Degree Days 28 (Base 50)    
Moisture  
Dew Point 51 °F    
Average Humidity 42    
Maximum Humidity 72    
Minimum Humidity 17    
Precipitation  
Precipitation 0.00 in - - ()
Sea Level Pressure  
Sea Level Pressure 30.10 in    
Wind  
Wind Speed 8 mph (SW)    
Max Wind Speed 21 mph    
Max Gust Speed 29 mph    
Visibility 10 miles    
Events Thunderstorm    
Averages and records for this station are not official NWS values.
T = Trace of Precipitation, MM = Missing Value Source: NWS Daily Summary

Daily Weather History Graph

Daily Weather History Graph

Search for Another Location

Airport or City:

Trip Planner

Search our weather history database for the weather conditions in past years. The results will help you decide how hot, cold, wet, or windy it might be!

Date:

Astronomy

Sep. 03, 2013 Rise Set
Actual Time 7:23 AM CDT 8:23 PM CDT
Civil Twilight 6:55 AM CDT 8:51 PM CDT
Nautical Twilight 6:21 AM CDT 9:25 PM CDT
Astronomical Twilight 5:46 AM CDT 10:00 PM CDT
Moon 5:39 AM CDT (9/3) 7:12 PM CDT (9/3)
Length of Visible Light 13h 56m
Length of Day
13h 00m
Waning Crescent, 3% of the Moon is Illuminated
Sep 3
Waning Crescent
Sep 5
New
Sep 12
First Quarter
Sep 19
Full
Sep 26
Last Quarter

Hourly Weather History & Observations

Time (CDT) Temp. Dew Point Humidity Pressure Visibility Wind Dir Wind Speed Gust Speed Precip Events Conditions
12:15 AM 73.0 °F 57.6 °F 58% 30.10 in 10.0 mi SSE 11.5 mph - N/A   Clear
12:35 AM 72.1 °F 57.6 °F 60% 30.10 in 10.0 mi South 10.4 mph - N/A   Clear
12:55 AM 71.2 °F 57.6 °F 62% 30.10 in 10.0 mi South 10.4 mph - N/A   Clear
1:15 AM 70.5 °F 57.4 °F 63% 30.10 in 10.0 mi South 9.2 mph - N/A   Clear
1:35 AM 69.8 °F 57.2 °F 64% 30.10 in 10.0 mi South 10.4 mph - N/A   Clear
1:55 AM 69.4 °F 56.8 °F 64% 30.10 in 10.0 mi South 9.2 mph - N/A   Clear
2:15 AM 69.1 °F 56.3 °F 64% 30.10 in 10.0 mi South 10.4 mph - N/A   Clear
2:35 AM 69.3 °F 55.6 °F 62% 30.10 in 10.0 mi South 10.4 mph - N/A   Clear
2:55 AM 69.4 °F 54.9 °F 60% 30.09 in 10.0 mi South 10.4 mph - N/A   Clear
3:15 AM 69.3 °F 54.0 °F 58% 30.10 in 10.0 mi South 9.2 mph - N/A   Clear
3:25 AM 69.8 °F 53.6 °F 56% 30.09 in 10.0 mi South 8.1 mph - N/A   Clear
3:35 AM 68.4 °F 53.2 °F 58% 30.09 in 10.0 mi South 9.2 mph - N/A   Clear
3:55 AM 67.6 °F 52.7 °F 59% 30.08 in 10.0 mi South 8.1 mph - N/A   Clear
4:15 AM 67.1 °F 52.2 °F 59% 30.08 in 10.0 mi South 5.8 mph - N/A   Clear
4:35 AM 66.2 °F 51.8 °F 60% 30.09 in 10.0 mi South 5.8 mph - N/A   Clear
4:55 AM 65.3 °F 51.8 °F 62% 30.08 in 10.0 mi SSW 9.2 mph - N/A   Clear
5:15 AM 64.6 °F 51.4 °F 62% 30.08 in 10.0 mi SSW 10.4 mph - N/A   Clear
5:25 AM 64.4 °F 51.8 °F 64% 30.09 in 10.0 mi SW 9.2 mph - N/A   Clear
5:35 AM 63.7 °F 51.1 °F 64% 30.09 in 10.0 mi SW 10.4 mph - N/A   Clear
5:55 AM 63.9 °F 50.9 °F 63% 30.09 in 10.0 mi SW 8.1 mph - N/A   Clear
6:15 AM 61.7 °F 51.1 °F 68% 30.10 in 10.0 mi WSW 6.9 mph - N/A   Clear
6:35 AM 61.0 °F 51.4 °F 71% 30.10 in 10.0 mi WSW 8.1 mph - N/A   Clear
6:55 AM 61.0 °F 51.8 °F 72% 30.10 in 10.0 mi West 4.6 mph - N/A   Scattered Clouds
7:15 AM 61.9 °F 52.3 °F 71% 30.10 in 10.0 mi WSW 4.6 mph - N/A   Mostly Cloudy
7:35 AM 62.6 °F 52.5 °F 70% 30.11 in 10.0 mi SW 6.9 mph - N/A   Scattered Clouds
7:55 AM 63.7 °F 52.7 °F 67% 30.11 in 10.0 mi SW 3.5 mph - N/A   Scattered Clouds
8:15 AM 65.3 °F 52.9 °F 64% 30.12 in 10.0 mi WSW 3.5 mph - N/A   Scattered Clouds
8:35 AM 67.1 °F 53.4 °F 61% 30.12 in 10.0 mi WSW 5.8 mph - N/A   Mostly Cloudy
8:55 AM 69.4 °F 54.0 °F 58% 30.12 in 10.0 mi SW 4.6 mph - N/A   Mostly Cloudy
9:15 AM 71.1 °F 54.5 °F 56% 30.12 in 10.0 mi WSW 5.8 mph - N/A   Mostly Cloudy
9:35 AM 72.5 °F 54.9 °F 54% 30.13 in 10.0 mi WSW 3.5 mph - N/A   Scattered Clouds
9:55 AM 75.6 °F 54.5 °F 48% 30.13 in 10.0 mi West 3.5 mph - N/A   Clear
10:15 AM 80.1 °F 51.6 °F 37% 30.13 in 10.0 mi WNW 3.5 mph - N/A   Clear
10:35 AM 81.9 °F 51.4 °F 35% 30.14 in 10.0 mi NW 5.8 mph - N/A   Clear
10:55 AM 80.8 °F 52.5 °F 37% 30.13 in 10.0 mi Calm Calm - N/A   Clear
11:15 AM 84.0 °F 52.2 °F 33% 30.14 in 10.0 mi NNW 4.6 mph - N/A   Clear
11:35 AM 86.4 °F 51.8 °F 30% 30.13 in 10.0 mi North 5.8 mph - N/A   Clear
11:55 AM 88.2 °F 51.8 °F 29% 30.13 in 10.0 mi North 6.9 mph - N/A   Clear
12:15 PM 89.8 °F 50.5 °F 26% 30.13 in 10.0 mi North 6.9 mph - N/A   Clear
12:35 PM 90.7 °F 48.6 °F 23% 30.12 in 10.0 mi Calm Calm - N/A   Clear
12:55 PM 92.1 °F 46.6 °F 21% 30.12 in 10.0 mi North 13.8 mph 18.4 mph N/A   Clear
1:15 PM 93.2 °F 46.9 °F 20% 30.12 in 10.0 mi NW 12.7 mph 17.3 mph N/A   Clear
1:35 PM 92.5 °F 46.9 °F 21% 30.12 in 10.0 mi NW 9.2 mph 16.1 mph N/A   Clear
1:55 PM 92.7 °F 47.3 °F 21% 30.11 in 10.0 mi North 5.8 mph - N/A   Clear
2:15 PM 93.6 °F 46.8 °F 20% 30.10 in 10.0 mi WNW 6.9 mph 16.1 mph N/A   Scattered Clouds
2:35 PM 95.0 °F 47.1 °F 19% 30.10 in 10.0 mi NNE 8.1 mph 17.3 mph N/A   Scattered Clouds
2:55 PM 93.7 °F 45.1 °F 19% 30.10 in 10.0 mi NW 8.1 mph 16.1 mph N/A   Scattered Clouds
3:15 PM 93.7 °F 44.6 °F 18% 30.09 in 10.0 mi NNE 8.1 mph - N/A   Scattered Clouds
3:35 PM 94.6 °F 43.3 °F 17% 30.08 in 10.0 mi NE 4.6 mph - N/A   Scattered Clouds
3:55 PM 94.8 °F 45.1 °F 18% 30.07 in 10.0 mi NNE 10.4 mph - N/A   Scattered Clouds
4:15 PM 94.6 °F 43.9 °F 17% 30.07 in 10.0 mi North 5.8 mph - N/A   Scattered Clouds
4:35 PM 94.6 °F 43.9 °F 17% 30.07 in 10.0 mi SSW 8.1 mph - N/A   Scattered Clouds
4:55 PM 94.8 °F 44.1 °F 17% 30.07 in 10.0 mi North 8.1 mph - N/A   Scattered Clouds
5:15 PM 92.5 °F 45.0 °F 19% 30.07 in 10.0 mi Calm Calm - N/A   Mostly Cloudy
5:35 PM 93.9 °F 45.3 °F 19% 30.07 in 10.0 mi NNW 5.8 mph - N/A   Scattered Clouds
5:55 PM 93.2 °F 44.8 °F 19% 30.06 in 10.0 mi NE 5.8 mph - N/A   Scattered Clouds
6:15 PM 91.4 °F 46.2 °F 21% 30.07 in 10.0 mi NNE 9.2 mph 25.3 mph N/A   Mostly Cloudy
6:35 PM 90.9 °F 45.3 °F 21% 30.08 in 10.0 mi NE 8.1 mph - N/A   Scattered Clouds
6:55 PM 89.1 °F 45.5 °F 22% 30.07 in 10.0 mi NE 5.8 mph - N/A   Clear
7:15 PM 88.5 °F 46.6 °F 23% 30.07 in 10.0 mi Calm Calm - N/A   Scattered Clouds
7:35 PM 88.5 °F 46.8 °F 23% 30.07 in 10.0 mi East 3.5 mph - N/A Thunderstorm Scattered Clouds
7:55 PM 86.0 °F 47.7 °F 26% 30.07 in 10.0 mi East 3.5 mph - N/A   Mostly Cloudy
8:15 PM 85.5 °F 47.7 °F 27% 30.08 in 10.0 mi Calm Calm - N/A   Overcast
8:35 PM 84.9 °F 47.5 °F 27% 30.08 in 10.0 mi NE 5.8 mph - N/A   Overcast
8:55 PM 84.2 °F 48.7 °F 29% 30.09 in 10.0 mi NE 5.8 mph - N/A   Scattered Clouds
9:15 PM 82.4 °F 48.2 °F 30% 30.10 in 10.0 mi ENE 4.6 mph - N/A   Scattered Clouds
9:35 PM 82.4 °F 48.2 °F 30% 30.13 in 10.0 mi SSW 6.9 mph - N/A   Mostly Cloudy
9:55 PM 81.5 °F 50.4 °F 34% 30.14 in 10.0 mi WSW 20.7 mph 28.8 mph N/A   Mostly Cloudy
10:15 PM 78.3 °F 54.0 °F 43% 30.14 in 10.0 mi WSW 16.1 mph 26.5 mph N/A   Mostly Cloudy
10:35 PM 77.9 °F 53.8 °F 43% 30.14 in 10.0 mi SW 13.8 mph - N/A   Mostly Cloudy
10:55 PM 76.1 °F 54.5 °F 47% 30.13 in 10.0 mi SSW 8.1 mph - N/A Thunderstorm Thunderstorm
11:15 PM 76.1 °F 54.1 °F 46% 30.13 in 10.0 mi South 6.9 mph - N/A   Clear
11:35 PM 74.3 °F 55.4 °F 52% 30.12 in 10.0 mi Calm Calm - N/A   Clear
11:55 PM 74.5 °F 54.3 °F 49% 30.12 in 10.0 mi Calm Calm - N/A   Clear